Location: Star Hoppers Observatory
(42.7905°N, 83.6127°W)
Time: 20:57:01
(UTC-04:00)

NOSS 3-1 (A) - Visible Passes

Search period start: 31 October 2014 00:00
Search period end: 09 November 2014 23:00
Orbit: 892 x 1321 km, 63.4° (Epoch: 28 October)

Date Brightness Start Highest point End Pass type
(mag) Time Alt. Az. Time Alt. Az. Time Alt. Az.
31 Oct 5.8 04:01:09 20° NNE 04:02:16 21° NNE 04:07:46 10° ENE visible
31 Oct 4.5 05:48:38 15° NNW 05:54:51 58° NE 06:02:45 10° SE visible
01 Nov 6.1 03:18:27 16° NE 03:18:27 16° NE 03:21:25 10° ENE visible
01 Nov 4.9 05:05:56 25° NNW 05:09:54 42° NE 05:17:22 10° ESE visible
01 Nov 4.2 06:53:50 10° NW 07:01:11 56° WSW 07:09:03 10° SSE visible
01 Nov 5.1 20:47:58 10° S 20:49:24 17° S 20:49:24 17° S visible
02 Nov 5.3 03:23:21 29° NNE 03:24:48 31° NE 03:31:38 10° E visible
02 Nov 3.9 05:10:51 20° NW 05:16:34 82° WSW 05:24:40 10° SSE visible
02 Nov 4.8 19:04:38 10° SSE 19:07:18 19° SE 19:07:18 19° SE visible
02 Nov 5.4 20:53:15 10° SW 20:54:50 19° SW 20:54:50 19° SW visible
03 Nov 5.8 02:40:53 23° NE 02:40:53 23° NE 02:45:36 10° E visible
03 Nov 4.1 04:28:23 36° NNW 04:31:49 72° NE 04:39:53 10° SE visible
03 Nov 4.9 06:16:04 10° NW 06:22:24 29° WSW 06:29:02 10° SSW visible
03 Nov 5.1 18:22:39 10° SE 18:25:00 12° ESE 18:25:08 12° ESE visible
03 Nov 4.0 20:08:35 10° SSW 20:12:40 46° SSW 20:12:40 46° SSW visible
04 Nov 6.4 01:58:32 12° ENE 01:58:32 12° ENE 01:59:20 10° ENE visible
04 Nov 4.6 03:46:04 49° NNE 03:46:57 51° NE 03:54:43 10° ESE visible
04 Nov 4.3 05:33:35 23° WNW 05:37:58 44° WSW 05:45:30 10° S visible
04 Nov 3.6 19:24:20 10° S 19:30:06 50° ESE 19:30:26 50° ESE visible
04 Nov 5.5 21:15:33 10° WSW 21:17:57 22° W 21:17:57 22° W visible
05 Nov 5.3 03:03:51 33° ENE 03:03:51 33° ENE 03:09:11 10° ESE visible
05 Nov 3.9 04:51:23 49° WNW 04:53:25 65° WSW 05:01:24 10° SSE visible
05 Nov 5.5 06:40:07 10° W 06:43:16 13° WSW 06:46:30 10° SW visible
05 Nov 4.2 18:40:35 10° S 18:45:44 30° ESE 18:48:05 24° ENE visible
05 Nov 4.2 20:30:18 10° WSW 20:35:36 50° WNW 20:35:36 50° WNW visible
06 Nov 6.2 02:21:44 15° E 02:21:44 15° E 02:23:20 10° E visible
06 Nov 3.9 04:09:17 80° SE 04:09:17 80° SE 04:16:52 10° SE visible
06 Nov 5.1 05:56:49 19° W 05:59:03 22° WSW 06:04:48 10° SSW visible
06 Nov 4.8 17:57:37 10° SSE 18:01:31 18° ESE 18:05:36 10° ENE visible
06 Nov 3.5 19:45:24 10° SW 19:51:28 79° NW 19:53:08 52° NNE visible
06 Nov 5.9 21:38:41 10° W 21:40:38 17° WNW 21:40:38 17° WNW visible
07 Nov 5.1 03:27:15 37° ESE 03:27:15 37° ESE 03:31:56 10° SE visible
07 Nov 4.6 05:14:48 34° WSW 05:14:48 34° WSW 05:21:44 10° S visible
07 Nov 3.4 19:00:53 10° SSW 19:06:51 67° ESE 19:10:33 27° NE visible
07 Nov 5.1 20:52:56 10° W 20:58:03 30° NW 20:58:03 30° NW visible
08 Nov 6.1 02:45:17 15° ESE 02:45:17 15° ESE 02:46:37 10° ESE visible
08 Nov 4.7 04:32:49 38° SSW 04:32:49 38° SSW 04:37:58 10° S visible
08 Nov 3.9 18:16:49 10° S 18:22:24 41° ESE 18:27:52 13° NE visible
08 Nov 4.5 20:07:29 10° WSW 20:13:17 42° NW 20:15:21 33° N visible
08 Nov 6.3 22:02:25 10° NW 22:02:50 11° NW 22:02:50 11° NW visible
09 Nov 5.5 03:50:52 24° SSE 03:50:52 24° SSE 03:53:42 10° SSE visible
09 Nov 5.6 05:38:24 14° SW 05:38:24 14° SW 05:40:07 10° SW visible
09 Nov 3.9 19:22:22 10° SW 19:28:24 61° NW 19:32:33 23° NNE visible
09 Nov 5.7 21:16:21 10° WNW 21:20:02 19° NNW 21:20:02 19° NNW visible
